Location: Bacea
(45.9500°N, 22.6667°E)
Time: 17:33:38
(UTC+00:00)

Cosmos 489 Rocket - Pass Details

Date: 22 May 2022
Orbit: 952 x 983 km, 74.0° (Epoch: 29 June)

Event Time Altitude Azimuth Distance (km) Brightness Sun altitude
Rises 19:03:34 0° 252° (WSW) 3,630 7.9 -9.3°
Reaches altitude 10° 19:07:00 10° 271° (W) 2,684 7.6 -9.7°
Maximum altitude 19:11:07 18° 313° (NW) 2,157 7.6 -10.2°
Drops below altitude 10° 19:15:14 10° 355° (N) 2,690 7.6 -10.8°
Sets 19:18:42 0° 14° (NNE) 3,640 8.0 -11.2°
